GW0207 Weather Reports


time (UTC)temp
C
wind
direction
speed
KPH
gust
KPH
rain 1hr
cm
rain 24hr
cm
rain mn
cm
humidity
%
barometer
mb
20260505181629 27 209 0.0 4.8 0.00 0.00 0.00 46 1014.9
20260505181129 27 64 1.6 4.8 0.00 0.00 0.00 46 1015.1
20260505180849 26 252 1.6 9.7 0.00 0.00 0.00 46 1015.2
20260505180129 26 37 1.6 11.3 0.00 0.00 0.00 44 1015.2
20260505175629 26 37 1.6 11.3 0.00 0.00 0.00 45 1015.1
20260505175128 26 56 1.6 6.4 0.00 0.00 0.00 45 1015.0
20260505174629 27 286 1.6 8.0 0.00 0.00 0.00 46 1015.1
20260505174130 26 207 1.6 8.0 0.00 0.00 0.00 44 1015.1
20260505173629 26 305 0.0 8.0 0.00 0.00 0.00 46 1015.1
20260505173129 26 272 0.0 8.0 0.00 0.00 0.00 46 1015.2
20260505172628 26 205 1.6 6.4 0.00 0.00 0.00 48 1015.2
20260505172129 26 50 1.6 8.0 0.00 0.00 0.00 45 1015.3
20260505171631 26 61 0.0 9.7 0.00 0.00 0.00 47 1015.3
20260505171129 26 345 0.0 9.7 0.00 0.00 0.00 48 1015.3
20260505170628 26 134 0.0 8.0 0.00 0.00 0.00 48 1015.3
20260505170129 26 49 0.0 8.0 0.00 0.00 0.00 48 1015.5
20260505165630 26 31 0.0 4.8 0.00 0.00 0.00 49 1015.5
20260505165131 26 37 0.0 4.8 0.00 0.00 0.00 47 1015.5
20260505164631 26 70 0.0 4.8 0.00 0.00 0.00 47 1015.6
20260505164130 26 257 1.6 6.4 0.00 0.00 0.00 49 1015.6
20260505163851 26 117 0.0 6.4 0.00 0.00 0.00 50 1015.6
20260505163614 25 71 0.0 4.8 0.00 0.00 0.00 50 1015.6
20260505162617 25 77 0.0 4.8 0.00 0.00 0.00 50 1015.7
20260505162109 25 235 0.0 4.8 0.00 0.00 0.00 51 1015.8
20260505161603 25 2 0.0 4.8 0.00 0.00 0.00 50 1015.8
20260505161103 25 356 0.0 6.4 0.00 0.00 0.00 55 1015.8
20260505160603 25 57 0.0 6.4 0.00 0.00 0.00 51 1015.8
20260505160106 25 96 0.0 8.0 0.00 0.00 0.00 54 1015.8
20260505153102 24 233 0.0 4.8 0.00 0.00 0.00 54 1016.3
20260505152604 24 24 0.0 3.2 0.00 0.00 0.00 56 1016.2
20260505152104 23 42 0.0 6.4 0.00 0.00 0.00 56 1016.2
20260505151603 23 299 0.0 8.0 0.00 0.00 0.00 57 1016.2
20260505151103 23 231 0.0 8.0 0.00 0.00 0.00 57 1016.4
20260505150603 23 47 0.0 3.2 0.00 0.00 0.00 56 1016.4
20260505150104 23 45 0.0 4.8 0.00 0.00 0.00 57 1016.3
20260505140603 21 32 0.0 3.2 0.00 0.00 0.00 64 1016.3
20260505125034 17 29 0.0 1.6 0.00 0.00 0.00 76 1016.4
20260505124754 17 57 0.0 0.0 0.00 0.00 0.00 77 1016.4
20260505124032 16 32 0.0 0.0 0.00 0.00 0.00 78 1016.4
20260505123531 16 15 0.0 0.0 0.00 0.00 0.00 79 1016.5
20260505123030 15 32 0.0 0.0 0.00 0.00 0.00 81 1016.5
20260505122530 15 19 0.0 0.0 0.00 0.00 0.00 82 1016.6
20260505122250 15 57 0.0 0.0 0.00 0.00 0.00 82 1016.5
20260505121530 14 39 0.0 0.0 0.00 0.00 0.00 83 1016.5
20260505121028 14 51 0.0 0.0 0.00 0.00 0.00 84 1016.4
20260505120530 13 79 0.0 0.0 0.00 0.00 0.00 84 1016.3
20260505120029 13 207 0.0 0.0 0.00 0.00 0.00 86 1016.3
20260505115528 13 107 0.0 0.0 0.00 0.00 0.00 86 1016.3
20260505115029 13 115 0.0 0.0 0.00 0.00 0.00 87 1016.3
20260505115010 12 100 0.0 0.0 0.00 0.00 0.00 87 1016.3
20260505114032 12 147 0.0 0.0 0.00 0.00 0.00 88 1016.3
20260505113531 12 145 0.0 0.0 0.00 0.00 0.00 88 1016.2
20260505113031 12 145 0.0 0.0 0.00 0.00 0.00 88 1016.2
20260505112530 12 153 0.0 0.0 0.00 0.00 0.00 88 1016.2
20260505112255 12 152 0.0 0.0 0.00 0.00 0.00 88 1016.1
20260505111529 11 153 0.0 0.0 0.00 0.00 0.00 88 1015.9
20260505111028 11 153 0.0 0.0 0.00 0.00 0.00 89 1015.9
20260505111005 11 153 0.0 0.0 0.00 0.00 0.00 89 1015.8
20260505102029 11 161 0.0 0.0 0.00 0.00 0.00 87 1015.4
20260505101529 11 160 0.0 0.0 0.00 0.00 0.00 87 1015.3
20260505101029 11 154 0.0 0.0 0.00 0.00 0.00 86 1015.4
20260505100744 11 154 0.0 0.0 0.00 0.00 0.00 86 1015.3
20260505100025 11 154 0.0 0.0 0.00 0.00 0.00 85 1015.2
20260505095527 11 154 0.0 0.0 0.00 0.00 0.00 85 1015.1
20260505095023 11 154 0.0 0.0 0.00 0.00 0.00 85 1015.1
20260505094520 12 154 0.0 0.0 0.00 0.00 0.00 85 1015.1
20260505094242 12 154 0.0 0.0 0.00 0.00 0.00 85 1015.0
20260505093517 12 154 0.0 0.0 0.00 0.00 0.00 84 1015.0
20260505093015 12 154 0.0 0.0 0.00 0.00 0.00 84 1015.0
20260505092515 12 116 0.0 0.0 0.00 0.00 0.00 84 1014.9
20260505092011 12 116 0.0 0.0 0.00 0.00 0.00 84 1014.9
20260505091731 12 116 0.0 0.0 0.00 0.00 0.00 84 1014.9
20260505091009 12 116 0.0 0.0 0.00 0.00 0.00 83 1014.9
20260505090509 12 116 0.0 0.0 0.00 0.00 0.00 83 1014.9
20260505090008 12 116 0.0 0.0 0.00 0.00 0.00 82 1014.9
20260505085505 12 116 0.0 0.0 0.00 0.00 0.00 82 1014.9
20260505085005 13 115 0.0 0.0 0.00 0.00 0.00 81 1014.9
20260505084727 13 115 0.0 0.0 0.00 0.00 0.00 81 1014.8
20260505084225 13 115 0.0 0.0 0.00 0.00 0.00 81 1014.8
20260505083503 13 115 0.0 0.0 0.00 0.00 0.00 81 1014.8
20260505083005 13 115 0.0 0.0 0.00 0.00 0.00 81 1014.8
20260505082503 13 177 0.0 0.0 0.00 0.00 0.00 81 1014.8
20260505082003 13 177 0.0 0.0 0.00 0.00 0.00 81 1014.7
20260505081504 13 177 0.0 0.0 0.00 0.00 0.00 80 1014.7
20260505081003 13 102 0.0 0.0 0.00 0.00 0.00 80 1014.7
20260505080504 13 102 0.0 0.0 0.00 0.00 0.00 80 1014.6
20260505080004 13 102 0.0 0.0 0.00 0.00 0.00 80 1014.7
20260505075503 13 130 0.0 0.0 0.00 0.00 0.00 80 1014.7
20260505075224 13 230 0.0 0.0 0.00 0.00 0.00 80 1014.5
20260505074501 13 230 0.0 0.0 0.00 0.00 0.00 79 1014.5
20260505074001 13 230 0.0 0.0 0.00 0.00 0.00 79 1014.5
20260505073721 13 248 0.0 0.0 0.00 0.00 0.00 79 1014.5
20260505073001 14 248 0.0 0.0 0.00 0.00 0.00 78 1014.5
20260505072500 14 147 0.0 0.0 0.00 0.00 0.00 78 1014.4
20260505072222 14 146 0.0 0.0 0.00 0.00 0.00 78 1014.4
20260505071722 14 152 0.0 0.0 0.00 0.00 0.00 77 1014.4
20260505071000 14 152 0.0 0.0 0.00 0.00 0.00 77 1014.4
20260505070501 14 157 0.0 0.0 0.00 0.00 0.00 77 1014.4
20260505070231 15 157 0.0 0.0 0.00 0.00 0.00 76 1014.4
20260505065501 15 157 0.0 0.0 0.00 0.00 0.00 76 1014.4
20260505065001 15 247 0.0 0.0 0.00 0.00 0.00 76 1014.4
20260505064501 15 247 0.0 0.0 0.00 0.00 0.00 75 1014.5
20260505064225 15 248 0.0 0.0 0.00 0.00 0.00 75 1014.4
20260505063504 15 100 0.0 0.0 0.00 0.00 0.00 75 1014.3
20260505063005 15 111 0.0 0.0 0.00 0.00 0.00 74 1014.3
20260505062503 15 113 0.0 1.6 0.00 0.00 0.00 74 1014.4
20260505062002 15 240 0.0 1.6 0.00 0.00 0.00 74 1014.4
20260505061504 15 124 0.0 1.6 0.00 0.00 0.00 73 1014.4
20260505061004 16 45 0.0 0.0 0.00 0.00 0.00 73 1014.4
20260505060503 16 45 0.0 0.0 0.00 0.00 0.00 73 1014.4
20260505060004 16 42 0.0 1.6 0.00 0.00 0.00 73 1014.4
20260505055503 16 50 0.0 1.6 0.00 0.00 0.00 72 1014.4
20260505055003 16 60 0.0 1.6 0.00 0.00 0.00 72 1014.4
20260505054504 16 223 0.0 1.6 0.00 0.00 0.00 72 1014.3
20260505054003 16 49 0.0 1.6 0.00 0.00 0.00 72 1014.4
20260505053503 16 115 0.0 6.4 0.00 0.00 0.00 72 1014.5
20260505053004 16 67 0.0 6.4 0.00 0.00 0.00 71 1014.5
20260505052725 16 105 0.0 1.6 0.00 0.00 0.00 71 1014.5
20260505052004 16 7 0.0 3.2 0.00 0.00 0.00 71 1014.5
20260505051721 16 112 0.0 3.2 0.00 0.00 0.00 71 1014.6
20260505051005 16 112 0.0 1.6 0.00 0.00 0.00 71 1014.5
20260505050503 16 245 0.0 1.6 0.00 0.00 0.00 71 1014.5
20260505050222 16 275 0.0 1.6 0.00 0.00 0.00 70 1014.5
20260505041456 17 107 0.0 0.0 0.00 0.00 0.00 69 1014.4
20260505040953 17 235 0.0 3.2 0.00 0.00 0.00 68 1014.4
20260505040450 17 86 0.0 3.2 0.00 0.00 0.00 68 1014.5
20260505040212 17 123 0.0 3.2 0.00 0.00 0.00 68 1014.4
20260505035446 17 55 0.0 3.2 0.00 0.00 0.00 68 1014.3
20260505034938 17 197 0.0 1.6 0.00 0.00 0.00 68 1014.4
20260505034435 18 159 0.0 1.6 0.00 0.00 0.00 67 1014.4
20260505033935 18 102 0.0 1.6 0.00 0.00 0.00 67 1014.3
20260505033435 18 177 0.0 4.8 0.00 0.00 0.00 67 1014.3
20260505032933 18 138 0.0 4.8 0.00 0.00 0.00 67 1014.3
20260505032433 18 83 0.0 3.2 0.00 0.00 0.00 67 1014.4
20260505032421 18 79 0.0 3.2 0.00 0.00 0.00 67 1014.4
20260505031433 18 138 0.0 6.4 0.00 0.00 0.00 66 1014.4
20260505030933 18 42 0.0 6.4 0.00 0.00 0.00 66 1014.3
20260505030432 18 81 0.0 1.6 0.00 0.00 0.00 66 1014.3
20260505025931 18 156 0.0 3.2 0.00 0.00 0.00 65 1014.3
20260505025432 18 159 0.0 3.2 0.00 0.00 0.00 65 1014.2
20260505024931 19 231 0.0 3.2 0.00 0.00 0.00 64 1014.2
20260505024430 19 57 0.0 3.2 0.00 0.00 0.00 64 1014.2
20260505023931 19 38 0.0 3.2 0.00 0.00 0.00 63 1014.2
20260505023431 19 69 0.0 3.2 0.00 0.00 0.00 62 1014.2
20260505022933 19 65 0.0 3.2 0.00 0.00 0.00 62 1014.2
20260505022431 19 12 0.0 3.2 0.00 0.00 0.00 60 1014.1
20260505021932 19 64 0.0 6.4 0.00 0.00 0.00 59 1014.1
20260505021431 19 221 0.0 6.4 0.00 0.00 0.00 58 1014.0
20260505020931 19 15 0.0 6.4 0.00 0.00 0.00 55 1014.0
20260505020431 19 38 0.0 1.6 0.00 0.00 0.00 54 1013.9
20260505015931 20 179 0.0 1.6 0.00 0.00 0.00 53 1013.8
20260505015431 19 166 0.0 1.6 0.00 0.00 0.00 54 1013.7
20260505014931 19 114 0.0 0.0 0.00 0.00 0.00 54 1013.7
20260505014431 19 52 0.0 0.0 0.00 0.00 0.00 54 1013.5
20260505013931 19 52 0.0 0.0 0.00 0.00 0.00 54 1013.5
20260505013649 19 96 0.0 0.0 0.00 0.00 0.00 54 1013.5
20260505012931 19 91 0.0 0.0 0.00 0.00 0.00 54 1013.4
20260505012431 19 55 0.0 0.0 0.00 0.00 0.00 55 1013.4
20260505011931 19 98 0.0 0.0 0.00 0.00 0.00 56 1013.3
20260505011433 18 51 0.0 0.0 0.00 0.00 0.00 55 1013.3
20260505010932 19 49 0.0 0.0 0.00 0.00 0.00 55 1013.2
20260505010431 19 49 0.0 0.0 0.00 0.00 0.00 54 1013.1
20260505005930 19 49 0.0 0.0 0.00 0.00 0.00 54 1013.1
20260505005430 19 49 0.0 0.0 0.00 0.00 0.00 54 1013.1
20260505005207 20 49 0.0 0.0 0.00 0.00 0.00 53 1013.0
20260505004431 20 49 0.0 0.0 0.00 0.00 0.00 52 1012.9
20260505003931 20 49 0.0 0.0 0.00 0.00 0.00 51 1012.9
20260505003657 21 49 0.0 0.0 0.00 0.00 0.00 50 1012.9
20260505003414 21 49 0.0 0.0 0.00 0.00 0.00 48 1012.7
20260505002431 21 49 0.0 0.0 0.00 0.00 0.00 48 1012.8
20260505001931 21 148 0.0 0.0 0.00 0.00 0.00 47 1012.8
20260505001431 22 145 0.0 0.0 0.00 0.00 0.00 45 1012.7
20260505000932 22 176 0.0 3.2 0.00 0.00 0.00 45 1012.6
20260505000431 22 223 0.0 3.2 0.00 0.00 0.00 44 1012.5
20260504235932 22 258 0.0 1.6 0.00 0.00 0.00 44 1012.6
20260504235431 22 108 0.0 1.6 0.00 0.00 0.00 44 1012.5
20260504234930 22 192 0.0 0.0 0.00 0.00 0.00 45 1012.4
20260504234432 22 278 0.0 1.6 0.00 0.00 0.00 42 1012.4
20260504233931 23 277 0.0 1.6 0.00 0.00 0.00 42 1012.3
20260504233425 23 74 0.0 0.0 0.00 0.00 0.00 41 1012.2
20260504232920 23 79 0.0 0.0 0.00 0.00 0.00 40 1012.1
20260504232413 23 240 0.0 0.0 0.00 0.00 0.00 40 1012.1
20260504231907 24 108 0.0 0.0 0.00 0.00 0.00 40 1012.0
20260504231405 24 104 0.0 1.6 0.00 0.00 0.00 40 1012.1
20260504230906 24 53 0.0 1.6 0.00 0.00 0.00 40 1012.1
20260504230403 25 57 0.0 4.8 0.00 0.00 0.00 37 1012.0
20260504225903 25 252 0.0 4.8 0.00 0.00 0.00 37 1012.1
20260504225622 25 53 0.0 3.2 0.00 0.00 0.00 38 1012.1
20260504225122 25 52 0.0 3.2 0.00 0.00 0.00 37 1012.1
20260504224401 25 58 0.0 3.2 0.00 0.00 0.00 37 1012.1
20260504223901 25 50 0.0 3.2 0.00 0.00 0.00 37 1012.1
20260504223401 25 52 0.0 4.8 0.00 0.00 0.00 38 1012.1
20260504222902 25 60 0.0 4.8 0.00 0.00 0.00 37 1012.1
20260504222400 25 92 0.0 1.6 0.00 0.00 0.00 40 1012.1
20260504222122 25 38 0.0 1.6 0.00 0.00 0.00 39 1012.1
20260504221401 25 45 0.0 1.6 0.00 0.00 0.00 37 1012.1
20260504220901 25 60 0.0 1.6 0.00 0.00 0.00 37 1012.1
20260504220401 25 72 0.0 1.6 0.00 0.00 0.00 38 1012.0
20260504220124 25 260 0.0 1.6 0.00 0.00 0.00 38 1012.1
20260504215401 25 62 0.0 3.2 0.00 0.00 0.00 37 1012.1
20260504214903 25 48 0.0 4.8 0.00 0.00 0.00 37 1012.1
20260504214400 25 42 0.0 4.8 0.00 0.00 0.00 36 1012.1
20260504213901 26 259 0.0 3.2 0.00 0.00 0.00 38 1012.2
20260504213401 26 149 0.0 3.2 0.00 0.00 0.00 37 1012.2
20260504212901 26 23 0.0 3.2 0.00 0.00 0.00 37 1012.2
20260504212400 26 47 0.0 3.2 0.00 0.00 0.00 37 1012.2
20260504211901 26 37 0.0 3.2 0.00 0.00 0.00 36 1012.2
20260504211401 26 48 0.0 1.6 0.00 0.00 0.00 37 1012.2
20260504210901 26 17 0.0 1.6 0.00 0.00 0.00 37 1012.2
20260504210623 26 121 0.0 4.8 0.00 0.00 0.00 37 1012.2
20260504205901 26 29 0.0 4.8 0.00 0.00 0.00 35 1012.3
20260504205401 26 38 0.0 4.8 0.00 0.00 0.00 37 1012.4
20260504204901 26 26 0.0 3.2 0.00 0.00 0.00 35 1012.4
20260504204840 26 50 0.0 4.8 0.00 0.00 0.00 37 1012.4
20260504203900 26 33 0.0 6.4 0.00 0.00 0.00 35 1012.4
20260504203401 26 43 0.0 6.4 0.00 0.00 0.00 35 1012.6
20260504202901 26 50 0.0 6.4 0.00 0.00 0.00 36 1012.5
20260504202401 26 117 0.0 4.8 0.00 0.00 0.00 36 1012.6
20260504201902 26 47 0.0 4.8 0.00 0.00 0.00 35 1012.7
20260504201401 27 217 0.0 4.8 0.00 0.00 0.00 36 1012.7
20260504200902 26 254 0.0 4.8 0.00 0.00 0.00 37 1012.7
20260504200629 26 297 0.0 3.2 0.00 0.00 0.00 38 1012.7
20260504195903 26 64 0.0 3.2 0.00 0.00 0.00 37 1012.7
20260504195403 26 53 0.0 1.6 0.00 0.00 0.00 37 1012.8
20260504195130 26 307 0.0 8.0 0.00 0.00 0.00 38 1012.9
20260504194403 26 46 0.0 8.0 0.00 0.00 0.00 37 1013.0
20260504194124 26 91 0.0 6.4 0.00 0.00 0.00 36 1013.2
20260504193850 26 16 0.0 6.4 0.00 0.00 0.00 39 1013.3
20260504192903 26 12 0.0 4.8 0.00 0.00 0.00 37 1013.3
20260504192403 26 87 0.0 4.8 0.00 0.00 0.00 39 1013.3
20260504191903 25 96 0.0 1.6 0.00 0.00 0.00 39 1013.2
20260504191403 25 140 0.0 4.8 0.00 0.00 0.00 38 1013.4
20260504190903 25 34 0.0 4.8 0.00 0.00 0.00 36 1013.4
20260504190403 25 5 0.0 3.2 0.00 0.00 0.00 38 1013.5
20260504185901 25 66 0.0 3.2 0.00 0.00 0.00 37 1013.6
20260504185401 25 49 1.6 6.4 0.00 0.00 0.00 38 1013.7
20260504185120 25 20 1.6 6.4 0.00 0.00 0.00 37 1013.8
20260504184400 25 43 0.0 6.4 0.00 0.00 0.00 38 1013.6
20260504183901 25 359 0.0 6.4 0.00 0.00 0.00 37 1013.7
20260504183627 25 60 0.0 6.4 0.00 0.00 0.00 37 1013.7
20260504182901 25 40 0.0 6.4 0.00 0.00 0.00 37 1013.8
20260504182401 25 250 0.0 6.4 0.00 0.00 0.00 38 1014.0